When you browse on this site, cookies collect data to enhance your experience and personalize the content and advertising you see.
Visit our Privacy Policy to learn more. By continuing to use the site, you agree to this use of cookies and data.
  • In Österreich
  • Länderverzeichnis
  • Für 7 Tage
  • Wassertemperatur
  • Satellitenkarten
  • Wetterkarte
  • News
  • Widgets
  • user-avatar
    Anmelden

    Stündliche Wetter Bolshie Steblevichi

    Heute, 21 Juli, Sonntag

    Zeit Temperatur Niederschläge Wind Luftdruck Luftfeuchtigkeit
    00:00 +16°C° 0.3 mm 0 m/S 751 mmHg 84%
    01:00 +16°C° 0.3 mm 0 m/S 751 mmHg 85%
    02:00 +16°C° 0 mm 1 m/S 752 mmHg 83%
    03:00 +16°C° 0 mm 1 m/S 752 mmHg 84%
    04:00 +15°C° 0 mm 0 m/S 752 mmHg 85%
    05:00 +15°C° 0 mm 0 m/S 752 mmHg 85%
    06:00 +17°C° 0 mm 0 m/S 752 mmHg 81%
    07:00 +21°C° 0 mm 1 m/S 752 mmHg 78%
    08:00 +23°C° 0 mm 1 m/S 752 mmHg 73%
    09:00 +24°C° 0.2 mm 1 m/S 752 mmHg 68%
    10:00 +26°C° 0.2 mm 1 m/S 752 mmHg 63%
    11:00 +27°C° 0.2 mm 2 m/S 752 mmHg 58%
    12:00 +27°C° 0.1 mm 1 m/S 752 mmHg 56%
    13:00 +28°C° 0.1 mm 1 m/S 751 mmHg 54%
    14:00 +28°C° 0.1 mm 1 m/S 751 mmHg 52%
    15:00 +26°C° 0 mm 0 m/S 751 mmHg 53%
    16:00 +26°C° 0 mm 0 m/S 751 mmHg 54%
    17:00 +26°C° 0 mm 0 m/S 751 mmHg 55%
    18:00 +24°C° 0 mm 0 m/S 751 mmHg 60%
    19:00 +25°C° 0 mm 1 m/S 750 mmHg 66%
    20:00 +23°C° 0 mm 1 m/S 750 mmHg 72%
    21:00 +22°C° 0.3 mm 1 m/S 750 mmHg 76%
    22:00 +21°C° 0.3 mm 1 m/S 750 mmHg 81%
    23:00 +19°C° 0.3 mm 2 m/S 750 mmHg 85%

    Morgen, 22 Juli, Montag

    Zeit Temperatur Niederschläge Wind Luftdruck Luftfeuchtigkeit
    00:00 +20°C° 0.1 mm 1 m/S 750 mmHg 86%
    01:00 +20°C° 0.1 mm 1 m/S 750 mmHg 88%
    02:00 +18°C° 0.1 mm 0 m/S 750 mmHg 89%
    03:00 +19°C° 0.4 mm 1 m/S 750 mmHg 91%
    04:00 +19°C° 0.4 mm 1 m/S 750 mmHg 94%
    05:00 +18°C° 0.4 mm 2 m/S 749 mmHg 96%
    06:00 +18°C° 0.4 mm 2 m/S 750 mmHg 96%
    07:00 +18°C° 0.4 mm 2 m/S 750 mmHg 96%
    08:00 +18°C° 0.4 mm 3 m/S 750 mmHg 95%
    09:00 +19°C° 0.6 mm 2 m/S 750 mmHg 91%
    10:00 +20°C° 0.6 mm 2 m/S 750 mmHg 87%
    11:00 +21°C° 0.6 mm 2 m/S 750 mmHg 83%
    12:00 +22°C° 1.1 mm 3 m/S 750 mmHg 82%
    13:00 +22°C° 1.1 mm 3 m/S 750 mmHg 82%
    14:00 +23°C° 1.1 mm 4 m/S 750 mmHg 82%
    15:00 +23°C° 0.5 mm 4 m/S 750 mmHg 80%
    16:00 +23°C° 0.5 mm 4 m/S 750 mmHg 78%
    17:00 +23°C° 0.5 mm 4 m/S 750 mmHg 77%
    18:00 +22°C° 0.1 mm 4 m/S 750 mmHg 80%
    19:00 +20°C° 0.1 mm 3 m/S 750 mmHg 84%
    20:00 +19°C° 0.1 mm 3 m/S 750 mmHg 88%
    21:00 +18°C° 0 mm 3 m/S 750 mmHg 90%
    22:00 +17°C° 0 mm 3 m/S 750 mmHg 92%
    23:00 +17°C° 0 mm 3 m/S 750 mmHg 94%

    übermorgen, 23 Juli, Dienstag

    Zeit Temperatur Niederschläge Wind Luftdruck Luftfeuchtigkeit
    00:00 +16°C° 0 mm 3 m/S 750 mmHg 94%
    01:00 +14°C° 0 mm 3 m/S 750 mmHg 94%
    02:00 +14°C° 0 mm 3 m/S 750 mmHg 94%
    03:00 +13°C° 0 mm 3 m/S 750 mmHg 95%
    04:00 +12°C° 0 mm 3 m/S 750 mmHg 96%
    05:00 +12°C° 0 mm 3 m/S 750 mmHg 97%
    06:00 +13°C° 0 mm 3 m/S 750 mmHg 94%
    07:00 +14°C° 0 mm 4 m/S 750 mmHg 90%
    08:00 +15°C° 0 mm 4 m/S 750 mmHg 87%
    09:00 +15°C° 0 mm 4 m/S 750 mmHg 86%
    10:00 +17°C° 0 mm 4 m/S 750 mmHg 85%
    11:00 +18°C° 0 mm 4 m/S 750 mmHg 83%
    12:00 +18°C° 0.1 mm 4 m/S 750 mmHg 82%
    13:00 +19°C° 0.1 mm 3 m/S 750 mmHg 80%
    14:00 +20°C° 0.1 mm 3 m/S 749 mmHg 79%
    15:00 +20°C° 0.1 mm 3 m/S 749 mmHg 79%
    16:00 +20°C° 0.1 mm 3 m/S 749 mmHg 79%
    17:00 +20°C° 0.1 mm 3 m/S 749 mmHg 79%
    18:00 +19°C° 0.1 mm 2 m/S 749 mmHg 84%
    19:00 +18°C° 0.1 mm 2 m/S 749 mmHg 89%
    20:00 +17°C° 0.1 mm 2 m/S 749 mmHg 94%
    21:00 +17°C° 0 mm 2 m/S 749 mmHg 95%
    22:00 +16°C° 0 mm 2 m/S 749 mmHg 96%
    23:00 +16°C° 0 mm 2 m/S 749 mmHg 97%

    24 Juli, Mittwoch

    Zeit Temperatur Niederschläge Wind Luftdruck Luftfeuchtigkeit
    00:00 +16°C° 0 mm 2 m/S 749 mmHg 97%
    01:00 +16°C° 0 mm 2 m/S 749 mmHg 96%
    02:00 +15°C° 0 mm 2 m/S 749 mmHg 96%
    03:00 +15°C° 0 mm 2 m/S 750 mmHg 96%
    04:00 +15°C° 0 mm 2 m/S 750 mmHg 96%
    05:00 +15°C° 0 mm 2 m/S 750 mmHg 97%
    06:00 +16°C° 0 mm 2 m/S 750 mmHg 93%
    07:00 +18°C° 0 mm 3 m/S 750 mmHg 89%
    08:00 +20°C° 0 mm 3 m/S 750 mmHg 85%
    09:00 +21°C° 0 mm 3 m/S 750 mmHg 77%
    10:00 +24°C° 0 mm 3 m/S 750 mmHg 69%
    11:00 +25°C° 0 mm 4 m/S 750 mmHg 62%
    12:00 +26°C° 0 mm 4 m/S 750 mmHg 60%
    13:00 +26°C° 0 mm 4 m/S 750 mmHg 58%
    14:00 +27°C° 0 mm 4 m/S 750 mmHg 56%
    15:00 +27°C° 0 mm 4 m/S 750 mmHg 58%
    16:00 +26°C° 0 mm 4 m/S 750 mmHg 61%
    17:00 +26°C° 0 mm 4 m/S 750 mmHg 63%
    18:00 +24°C° 0 mm 3 m/S 750 mmHg 69%
    19:00 +22°C° 0 mm 3 m/S 750 mmHg 74%
    20:00 +20°C° 0 mm 3 m/S 751 mmHg 80%
    21:00 +19°C° 0 mm 2 m/S 751 mmHg 81%
    22:00 +18°C° 0 mm 2 m/S 751 mmHg 83%
    23:00 +17°C° 0 mm 2 m/S 752 mmHg 84%

    25 Juli, Donnerstag

    Zeit Temperatur Niederschläge Wind Luftdruck Luftfeuchtigkeit
    00:00 +17°C° 0 mm 2 m/S 752 mmHg 86%
    01:00 +17°C° 0 mm 2 m/S 752 mmHg 89%
    02:00 +16°C° 0 mm 2 m/S 752 mmHg 91%
    03:00 +16°C° 0 mm 2 m/S 752 mmHg 91%
    04:00 +16°C° 0 mm 2 m/S 752 mmHg 92%
    05:00 +16°C° 0 mm 2 m/S 753 mmHg 92%
    06:00 +17°C° 0 mm 2 m/S 753 mmHg 86%
    07:00 +19°C° 0 mm 2 m/S 753 mmHg 81%
    08:00 +21°C° 0 mm 2 m/S 753 mmHg 75%
    09:00 +24°C° 0 mm 3 m/S 753 mmHg 68%
    10:00 +25°C° 0 mm 3 m/S 753 mmHg 61%
    11:00 +27°C° 0 mm 3 m/S 753 mmHg 54%
    12:00 +27°C° 0 mm 3 m/S 753 mmHg 54%
    13:00 +27°C° 0 mm 3 m/S 753 mmHg 53%
    14:00 +28°C° 0 mm 3 m/S 753 mmHg 52%
    15:00 +28°C° 0 mm 3 m/S 752 mmHg 55%
    16:00 +27°C° 0 mm 3 m/S 752 mmHg 59%
    17:00 +27°C° 0 mm 3 m/S 752 mmHg 62%
    18:00 +25°C° 0 mm 3 m/S 752 mmHg 69%
    19:00 +24°C° 0 mm 3 m/S 752 mmHg 76%
    20:00 +21°C° 0 mm 2 m/S 752 mmHg 83%
    21:00 +20°C° 0 mm 2 m/S 752 mmHg 83%
    22:00 +19°C° 0 mm 2 m/S 753 mmHg 84%
    23:00 +18°C° 0 mm 2 m/S 753 mmHg 85%

    26 Juli, Freitag

    Zeit Temperatur Niederschläge Wind Luftdruck Luftfeuchtigkeit
    00:00 +17°C° 0 mm 2 m/S 753 mmHg 84%
    01:00 +17°C° 0 mm 2 m/S 753 mmHg 84%
    02:00 +16°C° 0 mm 2 m/S 753 mmHg 84%
    03:00 +16°C° 0 mm 2 m/S 753 mmHg 86%
    04:00 +16°C° 0 mm 2 m/S 753 mmHg 88%
    05:00 +16°C° 0 mm 2 m/S 753 mmHg 90%
    06:00 +18°C° 0 mm 2 m/S 753 mmHg 85%
    07:00 +20°C° 0 mm 3 m/S 753 mmHg 81%
    08:00 +21°C° 0 mm 3 m/S 753 mmHg 77%
    09:00 +24°C° 0 mm 3 m/S 753 mmHg 70%
    10:00 +25°C° 0 mm 3 m/S 753 mmHg 63%
    11:00 +27°C° 0 mm 3 m/S 753 mmHg 55%
    12:00 +27°C° 0 mm 3 m/S 752 mmHg 55%
    13:00 +28°C° 0 mm 3 m/S 752 mmHg 54%
    14:00 +28°C° 0 mm 3 m/S 752 mmHg 53%
    15:00 +28°C° 0 mm 3 m/S 752 mmHg 57%
    16:00 +27°C° 0 mm 3 m/S 752 mmHg 61%
    17:00 +27°C° 0 mm 3 m/S 751 mmHg 65%
    18:00 +25°C° 0 mm 3 m/S 751 mmHg 71%
    19:00 +24°C° 0 mm 2 m/S 751 mmHg 78%
    20:00 +21°C° 0 mm 2 m/S 751 mmHg 84%
    21:00 +20°C° 0 mm 2 m/S 751 mmHg 86%
    22:00 +20°C° 0 mm 2 m/S 752 mmHg 88%
    23:00 +19°C° 0 mm 2 m/S 752 mmHg 90%
    Mehr zeigen